Regional Weather Roundup
Issued by NWS Albany, NY

Home | Current Version | Previous Version | Text Only | Print | Product List | Glossary On
Versions: 1 2 3 4 5 6 7 8 9 10 11 12 13 14 15 16 17 18 19 20 21 22 23 24 25 26 27 28 29 30 31 32 33 34 35 36 37 38 39 40 41 42 43 44 45 46 47 48 49 50
000
ASUS41 KALY 011010
RWRALY

NEW YORK STATE HOURLY WEATHER ROUNDUP
NATIONAL WEATHER SERVICE ALBANY NY
600 AM EDT TUE SEP 01 2015

NOTE: "FAIR" INDICATES FEW OR NO CLOUDS BELOW 12,000 FEET WITH NO
SIGNIFICANT WEATHER AND/OR NO OBSTRUCTIONS TO VISIBILITY.

NYZ032-033-038>043-046>054-057>066-NYZ062>081-011100-
EAST


CITY           SKY/WX    TMP DP  RH WIND       PRES   REMARKS
ALBANY         PTCLDY    63  60  90 CALM      30.05R
GLENS FALLS    CLEAR     57  56  96 CALM      30.05R FOG
POUGHKEEPSIE   CLEAR     63  61  93 E3        30.03R FOG
NEWBURGH       MOCLDY    64  64 100 VRB5      30.05R
MONTGOMERY     CLEAR     63  62  97 N3        30.04R FOG
WHITE PLAINS   CLEAR     69  65  86 NW3       30.02R
ISLIP          PTCLDY    71  66  84 N6        29.99R
NEW YORK CITY  PTCLDY    77  67  71 CALM      30.00R
CENTRAL PARK   CLEAR     76  65  68 CALM      30.04R
$$

NYZ005>009-017-018-044>046-055-056-011100-
CENTRAL


CITY           SKY/WX    TMP DP  RH WIND       PRES   REMARKS
FULTON         MOCLDY    64  62  93 CALM      30.06R FOG
SYRACUSE       PTCLDY    64  63  96 SE5       30.05S
ROME           CLOUDY    63  61  93 CALM      30.08S
ELMIRA         FOG       62  62 100 W3        30.08R VSB 1/4
BINGHAMTON     CLEAR     66  65  96 CALM      30.09S FOG
MONTICELLO     CLEAR     59  59 100 CALM      30.10R
$$

NYZ026>034-041>043-011100-
NORTH


CITY           SKY/WX    TMP DP  RH WIND       PRES   REMARKS
WATERTOWN      FOG       64  63  96 S3        30.04S VSB 3/4
FORT DRUM      NOT AVBL
MASSENA        FOG       54  53  97 CALM      30.04S VSB 1/4
SARANAC LAKE   FOG       54  54 100 CALM      30.08R VSB 1/4
PLATTSBURGH    CLEAR     59  58  96 CALM      30.05R FOG
$$

NYZ001>004-010>016-019>021-011100-
WEST


CITY           SKY/WX    TMP DP  RH WIND       PRES   REMARKS
NIAGARA FALLS  FOG       63  62  97 CALM      30.07R VSB 1/4
BUFFALO        CLOUDY    70  67  90 SW5       30.07S FOG
DUNKIRK        CLOUDY    67  65  93 S5        30.08S
JAMESTOWN      CLOUDY    57  55  94 CALM      30.12S VSB<1/4
WELLSVILLE     FOG       60  58  92 CALM      30.15R VSB<1/4
ROCHESTER      CLOUDY    69  67  93 W6        30.06S FOG
PENN YAN       CLEAR     65  63  93 SW3       30.08S FOG
$$

             KEY
       WCI = WIND CHILL INDEX
       VSB = VISIBILITY
       HX  = HEAT INDEX
$$


USA.gov is the U.S. government's official web portal to all federal, state and local government web resources and services.